Location: Ku?niki
(51.4449°N, 17.8974°E)
Time: 08:22:02
(UTC+00:00)

DX 1 - Pass Details

Date: 03 July 2022
Orbit: 617 x 629 km, 98.4° (Epoch: 07 August)

Event Time Altitude Azimuth Distance (km) Brightness Sun altitude
Rises 21:34:23 0° 4° (N) 2,934 ? -13.7°
Reaches altitude 10° 21:37:04 10° 348° (NNW) 2,020 ? -13.8°
Maximum altitude 21:40:12 20° 302° (WNW) 1,479 ? -14.0°
Drops below altitude 10° 21:43:20 10° 256° (WSW) 2,006 ? -14.1°
Sets 21:45:59 0° 239° (WSW) 2,906 ? -14.2°
